Location: Foligno
(42.9600°N, 12.7050°E)
Time: 11:05:32
(UTC+02:00)

ISS - Pass Details

Date: 25 May 2018
Orbit: 402 x 407 km, 51.6° (Epoch: 24 May)

Event Time Altitude Azimuth Distance (km) Brightness Sun altitude
Rises 00:28:40 0° 300° (WNW) 2,320 0.6 -25.6°
Reaches altitude 10° 00:31:11 10° 320° (NW) 1,459 -0.3 -25.6°
Maximum altitude 00:33:35 19° 7° (N) 1,048 -1.0 -25.7°
Enters shadow 00:35:43 11° 51° (NE) 1,382 -0.8 -25.8°
